SL-16 DEB, 22374

Orbit data source: Space-Track

SL-16 DEB, 22374 is space debris in LEO originally from a launch on Fri, 25 Dec 1992 UTC launched from the Tyuratam Missile And Space Complex (TTMTR). Debris objects in space refer to the collection of defunct objects orbiting the Earth. Examples of debris include non-operational satellites, rocket bodies, and fragments generated from explosions, collisions, or faulty payload assembly.

Loading next visibility...
Identifier
22374, 1992-093BP
Orbit
LEO
Country
Flag of CISCIS
Related business
Manufacturer
Unknown
Mission
Spacecraft
Bus & Motor
Unknown
Mass
Unknown
Launch date (UTC)
1992-12-25 (33 years ago)
Launch vehicle
Unknown
Launch site
Tyuratam Missile And Space Complex (TTMTR)
Object type
Payload
Rocket body
Debris
Shape & HBR
Unknown shape, 0.1 m
Radar Cross Section
Small (<0.1 m²)

Expand to show TLE details & history
Last TLE update: 9 hours ago

TLE from 9 hours ago
0 SL-16 DEB
1 22374U 92093BP  25353.22825885  .00000696  00000-0  53167-3 0  9995
2 22374  70.7863 150.0953 0171721  32.9472 145.2598 13.90249631661702
Epoch: 2025-12-19T05:28Z
TLE epoch observation values (Epoch: 2025-12-19T05:28:41.564Z)
Latitude
0.55185°
Longitude
159.65835°
Altitude
1,033.84 km
Speed
7.283 km/s
True Right ascension
21h 59m 36s
True Declination
0° 32' 55"
Sunlit
Object was in daylight at epoch
Visualization orbit readout
Latitude
Unknown
Longitude
Unknown
Altitude
Unknown
Speed
Unknown
Apparent Right ascension
Unknown
Apparent Declination
Unknown
Sunlit
N/A
Visualization observer readout
Local Sidereal Time
13:15:40
Azimuth
Unknown
Elevation
Unknown
Doppler factor
Unknown
Orbital elements
Apogee altitude
1,051.148 km
Perigee altitude
800.303 km
Semi-major axis
7,303.862 km
Eccentricity
0.01717
Inclination
70.7863°
RAAN
150.0953°
Arg. of periapsis
32.9472°
True anomaly
146.36163°
Mean anomaly
145.2598°
Eccentric anomaly
145.81265°
Mean motion
3.47708 °/min
Orbital period
103.54 mins
BSTAR
0.00053167
Loading maneuver chart data...
Computing Atmospheric mass density...
Loading historical data...
Loading historical data...
Loading historical data...
Loading historical data...
Loading historical data...
Loading historical data...
Loading historical data...

Documentation

Showing up to 5 results
|